Flag for Norway Weather past 2 weeks in Egersund, Norway

Now
43 °F

Quite cool.


Feels Like: 42 °F
Forecast: 42 / 46 °F
Wind: 3 mph from South

Location: Ualand-Bjuland

Current Time: Mar 6, 2015 at 12:46:25 PM

Latest Report: Mar 6, 2015 at 12:00 PM


Visibility: N/A

Pressure: 30.26 "Hg

Humidity: 83%

Dew point: 38 °F

Location of EgersundLocation

Historic Weather in Egersund — Graph

°F

Egersund temperature yesterday

Maximum temperature yesterday: 40 °F (at 9:00 PM)
Minimum temperature yesterday: 32 °F (at 8:00 AM)
Average temperature yesterday: 37 °F

Past Weeks' High & Low Weather Summary

 TemperatureHumidityPressure
High44 °F (Mar 6, 10:00 AM)100% (Feb 22, 4:00 AM)30.37 "Hg (Feb 22, 4:00 AM)
Low28 °F (Mar 3, 8:00 AM)54% (Mar 4, 2:00 PM)28.82 "Hg (Feb 23, 6:00 AM)
Average37 °F91%29.53 "Hg
* Reported Feb 19 11:00 AM — Mar 6 11:00 AM, Egersund, Weather by CustomWeather, © 2015

Note: Actual official high and low records may vary slightly from our data, if they occured in-between our weather recording intervals... More about our weather records

Advertising

Egersund weather history for previous 24 hours

 ConditionsComfort  
Time TempWeatherWind HumidityBarometerVisibility
11:00 AM
Fri, Mar 6
44 °FQuite cool.2 mph78%30.24 "HgN/A
10:00 AM44 °FQuite cool.2 mph78%30.23 "HgN/A
9:00 AM41 °FQuite cool.1 mph90%30.24 "HgN/A
8:00 AM38 °FChilly.1 mph96%30.22 "HgN/A
7:00 AM38 °FOvercast.1 mph94%30.22 "Hg31 mi
6:00 AM37 °FChilly.1 mph96%30.22 "HgN/A
5:00 AM36 °FChilly.1 mph97%30.20 "HgN/A
3:00 AM40 °FQuite cool.1 mph99%30.19 "HgN/A
2:00 AM39 °FChilly.2 mph99%30.19 "HgN/A
1:00 AM39 °FChilly.1 mph99%30.18 "HgN/A
12:00 AM39 °FChilly.1 mph98%30.19 "HgN/A
11:00 PM
Thu, Mar 5
39 °FChilly.1 mph98%30.20 "HgN/A
10:00 PM40 °FChilly.1 mph98%30.21 "HgN/A
9:00 PM40 °FQuite cool.1 mph99%30.22 "HgN/A
7:00 PM39 °FLight rain. Low clouds.1 mph98%30.25 "Hg2 mi
6:00 PM40 °FChilly.1 mph97%30.26 "HgN/A
5:00 PM40 °FChilly.2 mph97%30.27 "HgN/A
4:00 PM40 °FChilly.2 mph96%30.30 "HgN/A
3:00 PM39 °FChilly.2 mph96%30.31 "HgN/A
2:00 PM39 °FChilly.3 mph95%30.32 "HgN/A
1:00 PM39 °FLight rain. Low clouds.2 mph94%30.34 "Hg12 mi
12:00 PM38 °FChilly.2 mph93%30.36 "HgN/A
Weather by CustomWeather, © 2015

See weather overviewHow to use our weather pages